Wind_Speed
39 39 40 40 40 40 40 41 40 40 40 41 43 44 46 46 46 47 47 47 47 48 48 49 49 48 48 48 48 48 47 46 46 44 43 44 44 43
40 40 40 39 39 40 40 41 41 41 41 42 43 44 46 46 46 47 47 47 48 49 49 49 48 48 48 48 47 46 45 43 42 42 42 41 41 40
40 40 39 39 39 39 40 40 41 42 43 43 44 45 46 46 47 47 48 49 49 49 49 49 48 48 48 47 45 44 42 41 41 41 41 40 40 40
40 40 39 39 39 39 40 40 41 43 43 43 44 46 46 46 47 48 49 49 49 49 49 49 48 48 47 45 43 42 41 41 41 41 40 40 40 41
40 39 39 39 39 40 40 41 42 43 44 44 45 46 46 47 47 48 48 49 49 50 50 49 48 47 45 43 42 41 41 41 41 40 39 39 39 39
39 39 39 39 40 40 41 42 42 43 44 45 46 46 47 47 48 48 48 48 48 48 48 48 46 45 43 42 42 41 41 40 39 38 37 36 36 36
39 38 39 39 40 40 41 42 42 43 45 46 46 47 47 47 48 48 48 47 47 47 46 45 44 43 42 41 41 40 39 38 36 35 34 33 33 33
39 39 39 40 40 40 41 42 43 44 45 46 46 47 47 48 48 48 48 47 44 44 43 41 41 41 40 40 39 39 37 35 33 32 31 31 30 30
39 39 39 39 40 40 42 43 43 44 45 46 47 47 47 47 47 47 46 44 42 41 40 39 39 39 38 38 37 36 34 32 30 30 30 30 29 28
39 39 39 39 40 40 41 42 44 45 45 45 47 47 47 46 46 45 43 41 40 39 38 38 37 37 36 35 35 33 32 30 29 29 29 28 27 26
38 39 39 40 40 41 42 43 44 44 44 45 46 46 45 45 44 42 40 38 36 36 37 36 34 34 34 33 32 31 30 29 28 28 27 26 24 23
38 39 39 40 40 41 42 43 43 43 44 44 44 44 44 42 41 39 37 35 34 35 34 33 33 32 30 30 30 29 28 28 28 27 25 24 22 20
38 38 39 40 40 41 42 42 42 43 43 43 43 42 41 38 37 36 34 34 33 33 32 32 31 30 29 28 28 27 26 26 25 24 23 21 21 21
38 38 39 40 41 41 41 41 41 41 41 41 40 39 37 35 34 34 33 33 32 31 31 31 30 29 27 26 26 25 25 24 23 21 20 20 20 20
38 38 38 38 40 40 40 40 40 40 40 39 38 37 35 34 32 32 32 31 29 29 30 29 29 27 26 25 24 23 22 21 20 19 18 18 18 18
37 37 37 38 38 38 39 39 39 38 37 37 36 34 32 31 31 30 29 28 27 28 29 28 27 25 24 23 23 23 21 19 18 18 17 17 16 16
36 36 37 37 37 37 37 37 36 36 35 34 33 31 30 30 29 28 27 27 27 27 27 26 24 23 21 21 20 20 19 18 17 17 16 15 15 15
35 35 35 35 35 34 34 34 34 34 33 31 30 29 29 29 27 26 26 26 26 25 24 22 22 20 19 18 18 18 18 17 16 15 15 15 14 13
34 34 34 33 32 32 32 32 32 31 30 29 28 28 28 27 25 24 25 24 24 23 21 20 19 18 16 16 16 16 15 15 14 13 13 13 12 12
33 32 32 31 30 30 30 30 30 29 28 28 27 27 25 24 23 22 22 22 21 20 20 18 17 16 15 15 14 14 13 13 13 12 12 12 12 12
31 30 29 28 28 28 28 28 28 27 27 27 25 24 22 21 21 20 20 20 19 18 17 16 15 15 14 13 12 11 11 12 13 12 11 11 11 11
29 28 27 27 27 27 26 26 26 26 26 25 24 22 20 20 19 18 18 17 16 15 14 13 13 12 12 11 10 10 10 11 11 10 11 11 11 11
27 26 26 25 25 25 24 24 24 24 24 22 21 20 19 18 17 16 15 14 12 12 11 11 11 10 9 9 8 8 9 9 10 10 10 11 11 12
Wind_Direction
283 286 289 291 292 293 294 296 296 297 298 300 302 304 306 307 307 307 308 309 309 309 309 308 307 305 304 303 302 301 300 299 298 297 294 293 293 291
282 285 288 290 291 293 294 295 297 298 300 302 303 305 307 306 306 307 308 308 309 309 309 309 308 307 305 305 304 303 302 301 300 298 297 297 297 295
282 285 287 289 291 292 293 295 297 299 301 302 304 306 307 306 307 308 308 309 309 309 309 309 308 307 306 305 305 304 302 301 300 300 299 299 299 298
281 283 286 288 289 291 293 295 297 299 301 303 305 306 306 307 308 309 309 309 309 309 308 308 308 308 307 305 305 305 304 303 302 300 299 299 300 301
281 282 284 286 288 290 293 295 297 299 301 303 305 306 306 307 308 309 310 309 309 308 308 307 307 308 308 307 307 307 305 305 304 302 301 300 301 302
280 281 283 285 287 289 291 294 296 299 301 303 305 306 306 307 308 309 309 309 309 308 308 308 308 308 308 307 308 308 308 307 307 305 303 303 303 304
278 280 282 285 287 289 291 293 296 298 301 303 304 306 306 307 308 309 309 309 308 308 308 308 308 309 308 308 308 308 308 308 308 307 307 307 308 307
278 280 282 284 287 290 292 294 297 300 302 304 305 307 308 308 309 309 309 309 309 309 309 309 310 311 310 310 310 310 311 311 311 310 310 310 311 311
278 280 282 284 286 289 292 295 298 301 304 305 306 308 309 309 310 310 310 310 310 311 311 312 313 313 312 312 313 313 314 314 313 312 312 312 313 313
278 280 282 285 287 290 293 295 298 301 303 305 307 308 309 309 311 311 311 311 311 311 312 314 314 315 314 314 315 316 315 315 315 314 313 313 313 314
279 281 283 285 288 290 293 296 298 301 303 305 306 308 309 310 311 311 311 311 310 311 312 314 315 316 316 316 316 316 316 317 318 318 317 316 316 317
280 282 284 286 288 291 294 296 299 301 303 305 306 308 309 310 310 311 311 311 311 312 313 314 315 316 317 318 318 318 318 319 321 321 321 319 318 318
280 282 285 287 290 292 295 297 299 301 303 304 306 307 308 309 310 311 311 312 312 313 314 316 318 318 320 321 320 320 322 323 325 325 324 323 322 320
281 284 286 288 291 293 295 297 300 302 304 304 305 307 306 307 309 311 311 313 314 314 316 319 320 321 321 322 323 323 325 327 328 329 328 327 325 324
282 285 287 289 291 293 296 298 300 302 303 304 305 306 305 305 307 309 311 312 314 315 317 320 322 323 324 324 326 327 329 331 332 332 332 331 331 331
283 285 288 290 292 294 296 299 301 302 303 304 304 304 303 304 306 308 310 311 313 314 317 320 322 324 325 327 328 330 333 335 335 336 337 336 337 339
282 286 289 291 293 294 297 299 301 302 303 303 303 303 302 304 305 306 308 311 313 314 316 319 321 324 328 330 331 333 336 338 340 342 345 347 348 349
283 287 289 291 293 295 297 299 301 302 302 301 301 302 302 304 304 305 308 310 313 315 317 320 322 323 327 330 333 336 339 341 345 349 352 355 358 1
284 286 289 290 292 294 297 299 301 302 301 300 301 302 302 303 303 306 309 311 314 316 318 321 323 323 325 329 333 337 341 345 349 354 359 5 10 12
284 286 287 289 291 293 296 299 302 302 301 301 302 303 302 302 304 307 310 312 314 317 319 322 324 325 327 331 335 341 347 351 354 359 5 12 17 22
283 284 286 288 290 293 296 299 301 301 302 302 301 302 301 303 305 308 310 312 315 318 319 322 326 327 329 333 339 348 354 356 358 5 13 18 24 31
281 282 284 286 290 292 294 297 300 300 302 301 301 300 298 301 304 307 311 313 315 318 321 326 330 331 333 336 344 353 359 5 10 17 20 23 31 40
279 280 282 285 288 291 294 297 299 301 302 302 301 297 296 298 303 307 311 312 317 323 328 333 337 340 341 345 354 3 10 18 26 33 35 39 44 49
Height
5723 5721 5718 5715 5712 5709 5706 5703 5700 5696 5693 5687 5681 5675 5669 5663 5656 5650 5644 5637 5630 5624 5617 5610 5604 5597 5591 5585 5579 5573 5567 5561 5555 5550 5545 5541 5536 5532
5714 5712 5709 5706 5703 5700 5697 5693 5690 5686 5683 5678 5672 5666 5660 5654 5647 5641 5634 5628 5621 5614 5607 5600 5593 5586 5580 5574 5567 5561 5555 5549 5544 5539 5534 5529 5525 5520
5705 5703 5700 5697 5694 5691 5688 5685 5681 5677 5673 5669 5663 5657 5651 5645 5638 5631 5625 5618 5611 5603 5596 5589 5582 5576 5569 5562 5556 5550 5544 5539 5534 5529 5524 5519 5514 5509
5696 5693 5691 5689 5686 5683 5680 5676 5672 5668 5664 5660 5654 5648 5641 5635 5629 5622 5615 5607 5600 5593 5585 5578 5571 5564 5558 5552 5546 5540 5534 5529 5524 5518 5513 5509 5504 5499
5687 5684 5682 5680 5677 5674 5671 5667 5663 5659 5654 5649 5644 5638 5632 5625 5619 5613 5605 5597 5589 5582 5575 5568 5561 5554 5547 5541 5536 5530 5524 5519 5513 5508 5503 5498 5493 5488
5677 5675 5673 5671 5668 5665 5662 5658 5654 5650 5645 5640 5635 5629 5622 5616 5609 5603 5596 5588 5580 5572 5564 5557 5551 5544 5537 5532 5526 5520 5514 5508 5503 5497 5492 5488 5483 5478
5668 5666 5664 5662 5659 5656 5653 5649 5645 5640 5635 5630 5625 5619 5612 5606 5599 5592 5585 5578 5571 5562 5555 5548 5542 5535 5528 5522 5516 5511 5505 5499 5493 5488 5483 5479 5474 5469
5658 5657 5655 5652 5650 5646 5643 5639 5635 5630 5625 5620 5614 5608 5602 5595 5588 5581 5573 5567 5562 5555 5547 5540 5533 5526 5520 5514 5508 5502 5496 5490 5485 5480 5475 5471 5467 5462
5649 5648 5646 5643 5640 5637 5634 5630 5625 5620 5615 5610 5604 5597 5591 5585 5578 5571 5563 5556 5549 5544 5538 5532 5525 5518 5512 5505 5499 5494 5488 5483 5478 5473 5469 5464 5460 5455
5640 5638 5636 5633 5631 5628 5625 5621 5616 5611 5605 5600 5593 5587 5580 5573 5567 5561 5554 5548 5541 5534 5529 5524 5518 5512 5505 5498 5492 5487 5481 5476 5471 5467 5462 5458 5454 5449
5630 5628 5626 5624 5621 5619 5615 5611 5606 5601 5595 5589 5583 5576 5570 5563 5557 5551 5546 5540 5535 5529 5522 5517 5512 5506 5500 5494 5487 5481 5475 5471 5466 5461 5456 5452 5448 5444
5621 5619 5617 5614 5611 5608 5605 5601 5596 5591 5586 5580 5573 5567 5561 5555 5548 5543 5537 5532 5527 5522 5516 5511 5505 5499 5495 5489 5482 5476 5471 5466 5461 5456 5451 5447 5443 5440
5611 5609 5607 5604 5601 5598 5594 5590 5586 5581 5576 5570 5565 5559 5553 5547 5541 5535 5530 5524 5519 5514 5509 5504 5499 5493 5488 5483 5478 5472 5467 5462 5457 5452 5448 5443 5439 5436
5602 5599 5597 5594 5591 5588 5584 5580 5576 5571 5566 5561 5556 5551 5545 5540 5535 5529 5524 5518 5513 5508 5503 5498 5493 5488 5482 5478 5473 5469 5463 5458 5454 5449 5445 5441 5437 5432
5592 5590 5587 5585 5581 5578 5575 5571 5566 5562 5557 5553 5548 5543 5538 5533 5528 5523 5518 5513 5508 5503 5498 5493 5488 5483 5478 5473 5469 5465 5461 5456 5451 5447 5443 5439 5435 5431
5582 5580 5578 5575 5572 5568 5565 5561 5557 5553 5548 5544 5539 5535 5530 5526 5522 5517 5513 5508 5504 5499 5493 5488 5483 5479 5475 5470 5466 5461 5457 5453 5449 5445 5441 5437 5433 5429
5573 5571 5568 5566 5563 5559 5556 5552 5548 5544 5540 5536 5532 5528 5524 5520 5516 5512 5508 5503 5499 5495 5490 5485 5480 5476 5472 5468 5464 5459 5455 5451 5447 5443 5440 5436 5432 5428
5563 5562 5559 5556 5554 5550 5547 5543 5539 5536 5532 5528 5525 5521 5517 5514 5510 5506 5502 5499 5494 5490 5485 5481 5477 5474 5470 5466 5462 5458 5454 5450 5446 5442 5439 5435 5432 5429
5554 5552 5550 5548 5545 5542 5539 5535 5532 5528 5524 5521 5518 5514 5511 5508 5504 5501 5497 5494 5490 5486 5482 5478 5474 5471 5468 5465 5461 5456 5453 5449 5445 5442 5439 5435 5432 5429
5545 5544 5542 5539 5537 5534 5531 5528 5525 5521 5518 5515 5511 5508 5505 5502 5498 5496 5492 5489 5486 5482 5478 5474 5471 5468 5465 5463 5459 5456 5452 5448 5445 5442 5439 5436 5433 5430
5536 5535 5533 5531 5529 5527 5524 5521 5518 5515 5512 5508 5505 5502 5499 5497 5494 5491 5488 5485 5482 5479 5476 5473 5469 5466 5463 5461 5458 5455 5452 5449 5446 5442 5440 5437 5435 5432
5528 5526 5525 5523 5522 5520 5517 5514 5512 5508 5505 5502 5499 5497 5494 5492 5489 5487 5484 5482 5479 5476 5473 5471 5468 5465 5463 5461 5458 5455 5453 5450 5447 5444 5441 5439 5437 5435
5519 5518 5517 5516 5514 5513 5510 5508 5505 5502 5499 5497 5494 5491 5489 5487 5485 5483 5481 5479 5477 5474 5472 5470 5467 5465 5463 5461 5458 5455 5453 5451 5449 5447 5444 5442 5440 5438